Carver, MA

4:30 PM EDT on September 28, 2016 (GMT -0400)
Plymouth Municipal

Weather History for KPYM - February, 2013

Change the Weather History Date:

Friday, February 1, 2013

  Actual Average Record
Temperature  
Mean Temperature 28 °F -  
Max Temperature 32 °F 37 °F 62 °F (2016)
Min Temperature 23 °F 17 °F 0 °F (1971)
Degree Days  
Heating Degree Days 37    
Moisture  
Dew Point 8 °F    
Average Humidity 41    
Maximum Humidity 51    
Minimum Humidity 32    
Precipitation  
Precipitation 0.00 in - - ()
Sea Level Pressure  
Sea Level Pressure 29.82 in    
Wind  
Wind Speed 15 mph (West)    
Max Wind Speed 20 mph    
Max Gust Speed 34 mph    
Visibility 10 miles    
Events      
Averages and records for this station are not official NWS values.
T = Trace of Precipitation, MM = Missing Value Source: NWS Daily Summary

Daily Weather History Graph

Daily Weather History Graph

Search for Another Location

Airport or City:

Trip Planner

Search our weather history database for the weather conditions in past years. The results will help you decide how hot, cold, wet, or windy it might be!

Date:

Astronomy

Feb. 01, 2013 Rise Set
Actual Time 6:55 AM EST 4:58 PM EST
Civil Twilight 6:25 AM EST 5:27 PM EST
Nautical Twilight 5:52 AM EST 6:01 PM EST
Astronomical Twilight 5:19 AM EST 6:33 PM EST
Moon 11:09 PM EST (2/1) 9:20 AM EST (2/1)
Length of Visible Light 11h 02m
Length of Day
10h 03m
Waning Gibbous, 70% of the Moon is Illuminated
Feb 1
Waning Gibbous
Feb 3
Last Quarter
Feb 10
New
Feb 17
First Quarter
Feb 25
Full

Hourly Weather History & Observations

Time (EST) Temp. Windchill Dew Point Humidity Pressure Visibility Wind Dir Wind Speed Gust Speed Precip Events Conditions
12:52 AM 30.9 °F 20.2 °F 12.0 °F 46% 29.63 in 10.0 mi WSW 15.0 mph 24.2 mph N/A   Clear
1:52 AM 30.0 °F 19.5 °F 10.9 °F 45% 29.65 in 10.0 mi WSW 13.8 mph 21.9 mph N/A   Clear
2:52 AM 30.0 °F 17.5 °F 12.9 °F 49% 29.65 in 10.0 mi WSW 19.6 mph 27.6 mph N/A   Clear
3:52 AM 28.9 °F 16.1 °F 12.9 °F 51% 29.69 in 10.0 mi WSW 19.6 mph 26.5 mph N/A   Clear
4:52 AM 28.0 °F 16.1 °F 10.9 °F 49% 29.71 in 10.0 mi WSW 16.1 mph 21.9 mph N/A   Clear
5:52 AM 28.0 °F 16.1 °F 8.1 °F 43% 29.71 in 10.0 mi WSW 16.1 mph 21.9 mph N/A   Clear
6:52 AM 27.0 °F 14.7 °F 8.1 °F 45% 29.74 in 10.0 mi WSW 16.1 mph 25.3 mph N/A   Clear
7:52 AM 28.9 °F 16.5 °F 10.0 °F 45% 29.78 in 10.0 mi WSW 18.4 mph 28.8 mph N/A   Clear
8:52 AM 30.0 °F 17.9 °F 10.0 °F 43% 29.80 in 10.0 mi WSW 18.4 mph 34.5 mph N/A   Clear
9:52 AM 32.0 °F 21.6 °F 10.0 °F 40% 29.80 in 10.0 mi West 15.0 mph 23.0 mph N/A   Partly Cloudy
10:52 AM 30.9 °F 19.8 °F 9.0 °F 40% 29.80 in 10.0 mi West 16.1 mph 26.5 mph N/A   Clear
11:52 AM 30.9 °F 19.4 °F 9.0 °F 40% 29.78 in 10.0 mi West 17.3 mph 25.3 mph N/A   Partly Cloudy
12:52 PM 32.0 °F 23.0 °F 8.1 °F 37% 29.77 in 10.0 mi West 11.5 mph 19.6 mph N/A   Clear
1:52 PM 32.0 °F 23.0 °F 6.1 °F 34% 29.75 in 10.0 mi West 11.5 mph - N/A   Scattered Clouds
2:52 PM 32.0 °F 24.2 °F 5.0 °F 32% 29.78 in 10.0 mi WNW 9.2 mph - N/A   Overcast
3:52 PM 30.9 °F 22.2 °F 5.0 °F 33% 29.81 in 10.0 mi WNW 10.4 mph 19.6 mph N/A   Overcast
4:52 PM 30.0 °F 18.7 °F 3.9 °F 33% 29.85 in 10.0 mi NW 16.1 mph 19.6 mph N/A   Mostly Cloudy
5:52 PM 28.0 °F 17.5 °F 5.0 °F 38% 29.90 in 10.0 mi West 12.7 mph - N/A   Partly Cloudy
6:52 PM 28.0 °F 17.5 °F 5.0 °F 38% 29.94 in 10.0 mi West 12.7 mph - N/A   Clear
7:52 PM 27.0 °F 16.7 °F 6.1 °F 41% 29.98 in 10.0 mi WNW 11.5 mph - N/A   Clear
8:52 PM 26.1 °F 16.8 °F 7.0 °F 44% 30.01 in 10.0 mi WNW 9.2 mph 20.7 mph N/A   Clear
9:52 PM 25.0 °F 13.1 °F 6.1 °F 45% 30.04 in 10.0 mi WNW 13.8 mph 19.6 mph N/A   Clear
10:52 PM 24.1 °F 11.5 °F 3.0 °F 40% 30.07 in 10.0 mi WNW 15.0 mph 25.3 mph N/A   Clear
11:52 PM 23.0 °F 12.4 °F 1.9 °F 40% 30.09 in 10.0 mi WNW 10.4 mph 19.6 mph N/A   Clear